Location: *
(45.8589°N, 4.7139°E)
Time: 10:08:35
(UTC+00:00)

Okean 3 Rocket - Pass Details

Date: 09 April 2020
Orbit: 616 x 644 km, 82.5° (Epoch: 04 June)

Event Time Altitude Azimuth Distance (km) Brightness Sun altitude
Rises 20:48:35 0° 354° (N) 2,915 7.7 -23.6°
Reaches altitude 10° 20:50:51 10° 359° (N) 2,008 6.7 -23.9°
Enters shadow 20:54:37 52° 42° (NE) 783 4.0 -24.4°
